Location: Gälforsberget
(66.6500°N, 22.4167°E)
Time: 07:50:40
(UTC+00:00)

USA 229 - Pass Details

Date: 11 April 2026
Orbit: 843 x 1365 km, 63.4° (Epoch: 10 January)

Event Time Altitude Azimuth Distance (km) Brightness Sun altitude
Rises 22:13:09 0° 277° (W) 3,744 6.7 -14.7°
Reaches altitude 10° 22:15:38 10° 275° (W) 2,862 6.1 -14.7°
Maximum altitude 22:22:23 65° 195° (SSW) 1,254 3.8 -14.7°
Drops below altitude 10° 22:30:03 10° 116° (ESE) 3,235 6.0 -14.8°
Sets 22:33:01 0° 114° (ESE) 4,263 6.6 -14.8°
